Hiawatha, KS

07:43 AM CDT 2018 ekaina ren 22 an (GMT -0500)
South Hiawatha | | Change Station

Elev 1132 ft 39.85 °N, 95.54 °W | Updated 10 seconds ago

Estalia
Estalia
63.9 °F
Feels Like 63.9 °F
N
2
Haizea Aldagarria Haizea from HHE
Gusts 2.0 mph

Gaur
High -- | Low -- °F
--% Chance of Precip.
Yesterday
High -- | Low -- °F
Precip. -- in
Presioa 29.85 in
Ikusgaitasuna 10.0 Miliak
Clouds Dispertsaturik hodeiak 1000 ft
Estalia 1500 ft
Ihintzaren maila 60 °F
Afoinua 88%
Rainfall 0.00 in
Snow Depth Not available.
5:54 AM 8:54 PM
Waxing Gibbous, 72% visible
SPECI KFNB 221206Z AUTO 34007KT 10SM SCT010 OVC015 17/15 A2985 RMK AO2 T01720150
Presioa 29.85 in
Ikusgaitasuna 10.0 Miliak
Clouds Dispertsaturik hodeiak 1000 ft
Estalia 1500 ft
Ihintzaren maila 60 °F
Afoinua 88%
Rainfall 0.00 in
Snow Depth Not available.
5:54 AM 8:54 PM
Waxing Gibbous, 72% visible
SPECI KFNB 221206Z AUTO 34007KT 10SM SCT010 OVC015 17/15 A2985 RMK AO2 T01720150

Get Severe Weather Alerts

Thanks for signing up!

Be on the lookout for a verification email in your inbox.

You'll start receiving the daily forecast at 6 AM.

×

10-Day Weather Forecast

Almanac

Astronomy

Jun. 22, 2018 Rise Set
Actual Time
Civil Twilight
Nautical Twilight
Astronomical Twilight
Moon
Length Of Visible Light
Length of Day
Tomorrow will be .
, % of the Moon is Illuminated

Today's Extremes

State Highs State Lows

Community

WunderPhotos

Category 6

Welcome to Category 6. This is the collective home for Weather Underground's featured writeups by Dr. Jeff Masters (right), Bob Henson (left), Chris Burt, and other regular contributors.

Nearby

Air Quality

  Air Quality AQ Index Pollutant
Not available.

Snow Depth

Station Depth Elevation

Earthquake Activity

City Distance Mag. Time & Date
Minimum magnitude displayed is 2.5.

Coastal Water Temperatures

Lekua Tenperatura

Stations

Nearby Weather Stations

Station Location Temp Izozki haizeak Ihintzaren maila Afoinua Haizea Precip. Elev Eguneratuta Type
                   

Watches & Warnings

There are currently no watches in effect.